WZZ3PW EHEH-LBSF

Flight info

Callsign WZZ3PW
Flight time 2h 10m
Altitude 35000
Route VELNI DCT ONUNE DCT GMH DCT ESAMA DCT OSBIT DCT TENLO DCT LAMSI DCT SASAL DCT BABIT DCT BGD DCT RAVAK DCT NISVA
Aircraft A321/M-SDE3FGHIRWY/LB1

Departure

Time 2026-05-04 11:47
Airport Eindhoven Airport (EHEH)

Arrival

Time 2026-05-04 13:58
Airport Sofia Airport (LBSF)
Time Latitude Longitude Altitude Speed Heading
2026-05-04 11:06 51.45787 5.38978 75 ft 0 kts 125°
2026-05-04 11:16 51.45819 5.38866 68 ft 1 kts 43°
2026-05-04 11:16 51.45813 5.38857 70 ft 1 kts 35°
2026-05-04 11:16 51.45808 5.38851 65 ft 0 kts 34°
2026-05-04 11:22 51.45833 5.38881 70 ft 7 kts 36°
2026-05-04 11:22 51.45880 5.38934 71 ft 8 kts 34°
2026-05-04 11:23 51.45921 5.38979 68 ft 6 kts 33°
2026-05-04 11:23 51.45960 5.38989 75 ft 7 kts 344°
2026-05-04 11:24 51.45728 5.38224 72 ft 53 kts 216°
2026-05-04 11:25 51.45592 5.38070 70 ft 5 kts 213°
2026-05-04 11:25 51.45578 5.38038 71 ft 2 kts 258°
2026-05-04 11:25 51.45592 5.37985 74 ft 10 kts 300°
2026-05-04 11:26 51.45677 5.37922 75 ft 10 kts 24°
2026-05-04 11:27 51.45891 5.38550 71 ft 10 kts 125°
2026-05-04 11:28 51.45844 5.38659 72 ft 15 kts 125°
2026-05-04 11:28 51.45786 5.38781 69 ft 12 kts 144°
2026-05-04 11:28 51.45717 5.38749 69 ft 10 kts 215°
2026-05-04 11:28 51.45667 5.38701 73 ft 7 kts 189°
2026-05-04 11:29 51.45637 5.38733 75 ft 5 kts 130°
2026-05-04 11:29 51.45615 5.38782 64 ft 4 kts 125°
2026-05-04 11:29 51.45615 5.38783 64 ft 0 kts 125°
2026-05-04 11:40 51.45649 5.38676 68 ft 1 kts 46°
2026-05-04 11:41 51.45643 5.38667 66 ft 1 kts 36°
2026-05-04 11:41 51.45639 5.38662 70 ft 1 kts 37°
2026-05-04 11:41 51.45638 5.38660 66 ft 0 kts 37°
2026-05-04 11:44 51.45643 5.38666 65 ft 4 kts 36°
2026-05-04 11:44 51.45692 5.38723 69 ft 14 kts 35°
2026-05-04 11:44 51.45783 5.38825 70 ft 17 kts 35°
2026-05-04 11:45 51.45879 5.38932 70 ft 17 kts 34°
2026-05-04 11:45 51.45967 5.38983 75 ft 13 kts 334°
2026-05-04 11:45 51.46016 5.38884 71 ft 9 kts 304°
2026-05-04 11:45 51.46052 5.38802 64 ft 9 kts 306°
2026-05-04 11:46 51.46090 5.38719 69 ft 10 kts 306°
2026-05-04 11:46 51.46069 5.38637 72 ft 11 kts 218°
2026-05-04 11:46 51.45844 5.38384 71 ft 74 kts 215°
2026-05-04 11:46 51.45245 5.37713 70 ft 134 kts 215°
2026-05-04 11:47 51.44348 5.36714 196 ft 171 kts 213°
2026-05-04 11:47 51.43378 5.35634 876 ft 169 kts 214°
2026-05-04 11:47 51.42410 5.34555 1470 ft 172 kts 214°
2026-05-04 11:47 51.41370 5.33395 1734 ft 193 kts 215°
2026-05-04 11:48 51.40193 5.32208 1898 ft 214 kts 203°
2026-05-04 11:48 51.38686 5.31814 2288 ft 227 kts 174°
2026-05-04 11:48 51.37197 5.32606 2970 ft 229 kts 147°
2026-05-04 11:48 51.36091 5.34434 3661 ft 233 kts 119°
2026-05-04 11:49 51.35658 5.36926 4332 ft 238 kts 90°
2026-05-04 11:49 51.36031 5.39507 4987 ft 242 kts 65°
2026-05-04 11:49 51.36653 5.42018 5648 ft 244 kts 75°
2026-05-04 11:49 51.36915 5.44700 6329 ft 245 kts 90°
2026-05-04 11:50 51.36908 5.46516 6741 ft 247 kts 91°
2026-05-04 11:50 51.36875 5.50180 7630 ft 251 kts 92°
2026-05-04 11:50 51.36845 5.52982 8281 ft 253 kts 92°
2026-05-04 11:50 51.36815 5.55803 8899 ft 258 kts 91°
2026-05-04 11:51 51.36799 5.58802 9136 ft 281 kts 91°
2026-05-04 11:51 51.36794 5.61998 9591 ft 292 kts 91°
2026-05-04 11:51 51.36929 5.65263 10271 ft 300 kts 80°
2026-05-04 11:51 51.37556 5.68579 10541 ft 324 kts 65°
2026-05-04 11:52 51.38551 5.71905 10734 ft 347 kts 65°
2026-05-04 11:52 51.39615 5.75463 11215 ft 360 kts 64°
2026-05-04 11:52 51.40699 5.79113 11883 ft 366 kts 65°
2026-05-04 11:52 51.41791 5.82824 12572 ft 371 kts 65°
2026-05-04 11:53 51.42893 5.86586 13327 ft 375 kts 64°
2026-05-04 11:53 51.44013 5.90411 13959 ft 383 kts 65°
2026-05-04 11:53 51.45148 5.94291 14595 ft 386 kts 65°
2026-05-04 11:53 51.46274 5.98144 15170 ft 388 kts 65°
2026-05-04 11:55 51.51760 6.27258 19023 ft 404 kts 102°
2026-05-04 11:55 51.51217 6.31698 19511 ft 407 kts 104°
2026-05-04 11:56 51.50658 6.36177 19990 ft 411 kts 104°
2026-05-04 11:56 51.50099 6.40628 20465 ft 414 kts 104°
2026-05-04 11:56 51.49523 6.45175 20917 ft 418 kts 104°
2026-05-04 11:56 51.48939 6.49768 21366 ft 422 kts 105°
2026-05-04 11:57 51.48347 6.54392 21802 ft 425 kts 105°
2026-05-04 11:57 51.47749 6.59050 22225 ft 428 kts 105°
2026-05-04 11:57 51.47145 6.63754 22641 ft 432 kts 105°
2026-05-04 11:57 51.46540 6.68488 23057 ft 435 kts 105°
2026-05-04 11:58 51.45937 6.73199 23452 ft 439 kts 105°
2026-05-04 11:58 51.45320 6.78009 23770 ft 442 kts 105°
2026-05-04 11:58 51.44696 6.82856 24122 ft 445 kts 105°
2026-05-04 11:58 51.44065 6.87727 24473 ft 448 kts 106°
2026-05-04 11:59 51.43425 6.92628 24825 ft 450 kts 106°
2026-05-04 11:59 51.42782 6.97548 25164 ft 453 kts 106°
2026-05-04 11:59 51.42132 7.02498 25507 ft 455 kts 106°
2026-05-04 11:59 51.41477 7.07472 25852 ft 458 kts 106°
2026-05-04 12:00 51.40816 7.12475 26190 ft 460 kts 106°
2026-05-04 12:00 51.40157 7.17431 26516 ft 463 kts 107°
2026-05-04 12:00 51.39482 7.22487 26827 ft 466 kts 107°
2026-05-04 12:00 51.38800 7.27571 27141 ft 468 kts 107°
2026-05-04 12:01 51.38116 7.32679 27448 ft 471 kts 107°
2026-05-04 12:01 51.37362 7.37789 27753 ft 470 kts 112°
2026-05-04 12:02 51.27512 7.64256 29758 ft 465 kts 129°
2026-05-04 12:03 51.25719 7.68558 30148 ft 465 kts 129°
2026-05-04 12:03 51.23923 7.72855 30481 ft 465 kts 130°
2026-05-04 12:03 51.22127 7.77134 30831 ft 465 kts 130°
2026-05-04 12:03 51.20348 7.81358 31166 ft 464 kts 130°
2026-05-04 12:04 51.18530 7.85608 31488 ft 462 kts 133°
2026-05-04 12:04 51.16458 7.89460 31831 ft 455 kts 142°
2026-05-04 12:04 51.14092 7.92733 32156 ft 447 kts 149°
2026-05-04 12:04 51.11597 7.95689 32479 ft 447 kts 149°
2026-05-04 12:05 51.09104 7.98645 32807 ft 447 kts 149°
2026-05-04 12:05 51.06613 8.01603 33120 ft 447 kts 149°
2026-05-04 12:05 51.04123 8.04563 33449 ft 446 kts 149°
2026-05-04 12:05 51.01671 8.07477 33718 ft 447 kts 149°
2026-05-04 12:06 50.99172 8.10435 33952 ft 449 kts 149°
2026-05-04 12:06 50.96668 8.13387 34203 ft 449 kts 149°
2026-05-04 12:06 50.94162 8.16339 34463 ft 449 kts 149°
2026-05-04 12:06 50.91655 8.19290 34734 ft 448 kts 149°
2026-05-04 12:07 50.89154 8.22230 34936 ft 448 kts 149°
2026-05-04 12:07 50.86652 8.25172 34999 ft 447 kts 149°
2026-05-04 12:07 50.81692 8.30990 35000 ft 447 kts 149°
2026-05-04 12:08 50.76699 8.36824 34998 ft 446 kts 149°
2026-05-04 12:08 50.71703 8.42644 34999 ft 446 kts 149°
2026-05-04 12:09 50.66702 8.48459 34992 ft 447 kts 149°
2026-05-04 12:09 50.61718 8.54238 35000 ft 448 kts 149°
2026-05-04 12:10 50.56694 8.60038 35007 ft 448 kts 149°
2026-05-04 12:10 50.51670 8.65830 35006 ft 448 kts 149°
2026-05-04 12:11 50.46651 8.71612 35011 ft 447 kts 149°
2026-05-04 12:11 50.41665 8.77343 35018 ft 447 kts 149°
2026-05-04 12:12 50.36695 8.83211 35017 ft 451 kts 143°
2026-05-04 12:12 50.32736 8.90946 35021 ft 464 kts 123°
2026-05-04 12:14 50.21953 9.27775 35002 ft 467 kts 119°
2026-05-04 12:15 50.19249 9.36984 35004 ft 467 kts 119°
2026-05-04 12:15 50.16562 9.46132 35021 ft 467 kts 119°
2026-05-04 12:16 50.13842 9.55333 35019 ft 467 kts 119°
2026-05-04 12:16 50.11111 9.64530 35006 ft 468 kts 119°
2026-05-04 12:17 50.08364 9.73710 35008 ft 467 kts 119°
2026-05-04 12:17 50.05256 9.82426 35014 ft 461 kts 128°
2026-05-04 12:18 50.01722 9.90763 35013 ft 462 kts 128°
2026-05-04 12:18 49.98188 9.99107 35010 ft 462 kts 128°
2026-05-04 12:19 49.94657 10.07439 35005 ft 462 kts 128°
2026-05-04 12:19 49.91143 10.15708 35014 ft 462 kts 128°
2026-05-04 12:20 49.87595 10.24018 35020 ft 462 kts 128°
2026-05-04 12:20 49.84029 10.32293 35024 ft 462 kts 128°
2026-05-04 12:21 49.80461 10.40564 35025 ft 462 kts 128°
2026-05-04 12:21 49.76895 10.48827 35011 ft 461 kts 128°
2026-05-04 12:22 49.73351 10.57016 35016 ft 461 kts 128°
2026-05-04 12:22 49.69778 10.65239 35010 ft 461 kts 128°
2026-05-04 12:23 49.66204 10.73447 35014 ft 460 kts 128°
2026-05-04 12:23 49.62656 10.81589 35017 ft 460 kts 128°
2026-05-04 12:24 49.59070 10.89757 35010 ft 460 kts 128°
2026-05-04 12:24 49.55477 10.97918 35016 ft 460 kts 128°
2026-05-04 12:25 49.52012 11.06208 35014 ft 463 kts 120°
2026-05-04 12:25 49.49145 11.15010 35016 ft 463 kts 120°
2026-05-04 12:26 49.46237 11.23852 35001 ft 463 kts 120°
2026-05-04 12:26 49.43315 11.32677 34998 ft 464 kts 120°
2026-05-04 12:27 49.40389 11.41512 34987 ft 464 kts 120°
2026-05-04 12:27 49.37480 11.50273 34997 ft 464 kts 120°
2026-05-04 12:28 49.34546 11.59091 35007 ft 464 kts 120°
2026-05-04 12:28 49.31596 11.67909 35003 ft 465 kts 120°
2026-05-04 12:29 49.28630 11.76717 35006 ft 466 kts 120°
2026-05-04 12:29 49.25674 11.85478 35005 ft 466 kts 121°
2026-05-04 12:30 49.22696 11.94303 35011 ft 467 kts 121°
2026-05-04 12:30 49.19714 12.03117 35039 ft 467 kts 121°
2026-05-04 12:31 49.16729 12.11919 35023 ft 466 kts 120°
2026-05-04 12:31 49.13755 12.20649 35000 ft 466 kts 121°
2026-05-04 12:32 49.09232 12.33779 35001 ft 466 kts 121°
2026-05-04 12:33 49.06210 12.42522 34996 ft 466 kts 121°
2026-05-04 12:33 49.03203 12.51189 34989 ft 466 kts 121°
2026-05-04 12:34 49.00178 12.59914 34993 ft 466 kts 121°
2026-05-04 12:34 48.97143 12.68640 34999 ft 466 kts 121°
2026-05-04 12:35 48.94102 12.77359 34998 ft 466 kts 121°
2026-05-04 12:35 48.91075 12.86007 35001 ft 466 kts 121°
2026-05-04 12:36 48.88021 12.94694 34999 ft 466 kts 121°
2026-05-04 12:36 48.84960 13.03374 34999 ft 466 kts 121°
2026-05-04 12:37 48.81912 13.11986 35001 ft 466 kts 121°
2026-05-04 12:37 48.78837 13.20647 34994 ft 466 kts 121°
2026-05-04 12:38 48.75745 13.29298 34996 ft 467 kts 121°
2026-05-04 12:38 48.72650 13.37958 34998 ft 467 kts 121°
2026-05-04 12:39 48.69543 13.46608 35002 ft 468 kts 121°
2026-05-04 12:39 48.66448 13.55184 35009 ft 468 kts 121°
2026-05-04 12:40 48.63010 13.63488 34999 ft 466 kts 127°
2026-05-04 12:40 48.59366 13.71592 34995 ft 466 kts 127°
2026-05-04 12:41 48.55715 13.79682 34995 ft 466 kts 127°
2026-05-04 12:41 48.52075 13.87705 34998 ft 466 kts 127°
2026-05-04 12:42 48.48409 13.95769 34988 ft 466 kts 127°
2026-05-04 12:42 48.44746 14.03837 34993 ft 466 kts 126°
2026-05-04 12:43 48.41092 14.11824 34983 ft 466 kts 127°
2026-05-04 12:43 48.37403 14.19856 34985 ft 466 kts 127°
2026-05-04 12:44 48.33715 14.27873 34989 ft 466 kts 127°
2026-05-04 12:44 48.30024 14.35879 34985 ft 466 kts 126°
2026-05-04 12:45 48.26353 14.43821 34987 ft 466 kts 127°
2026-05-04 12:45 48.22652 14.51807 34987 ft 466 kts 127°
2026-05-04 12:46 48.18950 14.59788 34992 ft 466 kts 127°
2026-05-04 12:46 48.15237 14.67749 34982 ft 466 kts 126°
2026-05-04 12:47 48.11518 14.75692 34978 ft 466 kts 126°
2026-05-04 12:47 48.07816 14.83563 34986 ft 466 kts 127°
2026-05-04 12:48 48.04092 14.91483 34989 ft 466 kts 127°
2026-05-04 12:48 48.00366 14.99394 34993 ft 465 kts 127°
2026-05-04 12:49 47.96633 15.07282 34988 ft 465 kts 126°
2026-05-04 12:49 47.92919 15.15116 34994 ft 465 kts 126°
2026-05-04 12:50 47.89174 15.22986 35000 ft 465 kts 126°
2026-05-04 12:50 47.85416 15.30843 34999 ft 466 kts 126°
2026-05-04 12:51 47.81655 15.38685 35008 ft 466 kts 126°
2026-05-04 12:51 47.77912 15.46483 35007 ft 467 kts 126°
2026-05-04 12:52 47.74140 15.54331 35021 ft 467 kts 126°
2026-05-04 12:52 47.70358 15.62171 35021 ft 467 kts 127°
2026-05-04 12:53 47.66562 15.69997 35022 ft 467 kts 126°
2026-05-04 12:53 47.62792 15.77768 35025 ft 467 kts 126°
2026-05-04 12:54 47.58991 15.85589 35028 ft 467 kts 126°
2026-05-04 12:54 47.55176 15.93392 35025 ft 468 kts 126°
2026-05-04 12:55 47.51354 16.01181 35029 ft 468 kts 126°
2026-05-04 12:55 47.47559 16.08911 35031 ft 468 kts 126°
2026-05-04 12:56 47.43724 16.16695 35033 ft 468 kts 127°
2026-05-04 12:56 47.39886 16.24451 35038 ft 468 kts 127°
2026-05-04 12:57 47.36048 16.32198 35031 ft 468 kts 127°
2026-05-04 12:57 47.32229 16.39890 35035 ft 468 kts 127°
2026-05-04 12:58 47.28384 16.47612 35045 ft 468 kts 127°
2026-05-04 12:58 47.24446 16.55239 35041 ft 468 kts 128°
2026-05-04 12:59 47.20420 16.62751 35045 ft 467 kts 129°
2026-05-04 12:59 47.16422 16.70194 35053 ft 467 kts 128°
2026-05-04 13:00 47.12422 16.77701 35050 ft 466 kts 128°
2026-05-04 13:00 47.08438 16.85197 35052 ft 466 kts 128°
2026-05-04 13:01 47.04436 16.92677 35048 ft 466 kts 128°
2026-05-04 13:01 47.00453 17.00081 35058 ft 466 kts 128°
2026-05-04 13:02 46.96449 17.07541 35069 ft 466 kts 128°
2026-05-04 13:02 46.92433 17.14992 35069 ft 466 kts 128°
2026-05-04 13:03 46.88413 17.22426 35083 ft 466 kts 128°
2026-05-04 13:03 46.84409 17.29797 35090 ft 466 kts 128°
2026-05-04 13:04 46.80372 17.37212 35093 ft 466 kts 128°
2026-05-04 13:04 46.76334 17.44608 35094 ft 466 kts 128°
2026-05-04 13:05 46.72292 17.51985 35092 ft 466 kts 128°
2026-05-04 13:05 46.68279 17.59308 35087 ft 466 kts 128°
2026-05-04 13:06 46.64238 17.66677 35088 ft 465 kts 128°
2026-05-04 13:06 46.60196 17.74028 35092 ft 465 kts 128°
2026-05-04 13:07 46.56143 17.81353 35086 ft 465 kts 128°
2026-05-04 13:07 46.52080 17.88674 35090 ft 465 kts 128°
2026-05-04 13:08 46.48047 17.95935 35095 ft 465 kts 128°
2026-05-04 13:08 46.43980 18.03234 35104 ft 465 kts 128°
2026-05-04 13:09 46.39901 18.10520 35101 ft 465 kts 128°
2026-05-04 13:09 46.35830 18.17805 35102 ft 465 kts 128°
2026-05-04 13:10 46.31783 18.25032 35102 ft 465 kts 128°
2026-05-04 13:10 46.27694 18.32281 35116 ft 465 kts 128°
2026-05-04 13:11 46.23602 18.39522 35117 ft 465 kts 128°
2026-05-04 13:11 46.19533 18.46708 35116 ft 465 kts 128°
2026-05-04 13:12 46.15437 18.53932 35117 ft 465 kts 128°
2026-05-04 13:12 46.11340 18.61143 35123 ft 465 kts 128°
2026-05-04 13:13 46.07227 18.68351 35115 ft 465 kts 128°
2026-05-04 13:13 46.03112 18.75542 35110 ft 466 kts 128°
2026-05-04 13:14 45.99023 18.82683 35109 ft 466 kts 128°
2026-05-04 13:14 45.94900 18.89864 35124 ft 466 kts 128°
2026-05-04 13:15 45.90348 18.96496 35116 ft 468 kts 137°
2026-05-04 13:15 45.85466 19.02690 35116 ft 469 kts 137°
2026-05-04 13:16 45.80617 19.08854 35114 ft 469 kts 137°
2026-05-04 13:16 45.75729 19.15057 35116 ft 469 kts 137°
2026-05-04 13:17 45.70830 19.21241 35126 ft 470 kts 137°
2026-05-04 13:17 45.65922 19.27421 35120 ft 470 kts 137°
2026-05-04 13:18 45.61052 19.33558 35123 ft 470 kts 137°
2026-05-04 13:18 45.56143 19.39728 35122 ft 470 kts 137°
2026-05-04 13:19 45.51226 19.45883 35123 ft 470 kts 137°
2026-05-04 13:19 45.46347 19.51984 35114 ft 470 kts 137°
2026-05-04 13:20 45.41423 19.58118 35117 ft 470 kts 137°
2026-05-04 13:20 45.36496 19.64244 35120 ft 470 kts 137°
2026-05-04 13:21 45.31565 19.70362 35145 ft 471 kts 137°
2026-05-04 13:21 45.26661 19.76421 35137 ft 471 kts 137°
2026-05-04 13:22 45.21714 19.82517 35131 ft 471 kts 137°
2026-05-04 13:22 45.16763 19.88614 35132 ft 471 kts 137°
2026-05-04 13:23 45.11812 19.94705 35131 ft 471 kts 137°
2026-05-04 13:23 45.06886 20.00735 35140 ft 472 kts 137°
2026-05-04 13:24 45.01923 20.06801 35138 ft 472 kts 137°
2026-05-04 13:24 44.96958 20.12867 35159 ft 472 kts 137°
2026-05-04 13:25 44.89531 20.21900 35171 ft 472 kts 137°
2026-05-04 13:25 44.84557 20.27934 35168 ft 472 kts 137°
2026-05-04 13:26 44.79572 20.33950 35156 ft 472 kts 137°
2026-05-04 13:26 44.74561 20.39921 35160 ft 472 kts 137°
2026-05-04 13:27 44.69538 20.45869 35149 ft 472 kts 137°
2026-05-04 13:27 44.64543 20.51766 35160 ft 473 kts 137°
2026-05-04 13:28 44.59508 20.57709 35153 ft 473 kts 137°
2026-05-04 13:28 44.54474 20.63660 35149 ft 473 kts 137°
2026-05-04 13:29 44.50289 20.68596 35147 ft 473 kts 137°
2026-05-04 13:29 44.44416 20.75473 35149 ft 474 kts 137°
2026-05-04 13:30 44.39357 20.81395 35144 ft 475 kts 137°
2026-05-04 13:30 44.35146 20.86322 35142 ft 475 kts 137°
2026-05-04 13:31 44.30076 20.92243 35143 ft 475 kts 137°
2026-05-04 13:31 44.24994 20.98151 35161 ft 475 kts 137°
2026-05-04 13:32 44.19095 21.04992 35148 ft 474 kts 137°
2026-05-04 13:32 44.14847 21.09912 35144 ft 474 kts 137°
2026-05-04 13:33 44.09802 21.15731 35144 ft 474 kts 137°
2026-05-04 13:33 44.04727 21.21577 35161 ft 473 kts 137°
2026-05-04 13:34 43.99670 21.27403 34836 ft 471 kts 137°
2026-05-04 13:34 43.97147 21.30301 34589 ft 471 kts 137°
2026-05-04 13:34 43.94623 21.33197 34360 ft 471 kts 137°
2026-05-04 13:35 43.92094 21.36097 34116 ft 472 kts 137°
2026-05-04 13:35 43.87050 21.41866 33580 ft 472 kts 137°
2026-05-04 13:35 43.84525 21.44746 33335 ft 468 kts 137°
2026-05-04 13:36 43.82017 21.47602 33064 ft 465 kts 137°
2026-05-04 13:36 43.79526 21.50435 32792 ft 462 kts 137°
2026-05-04 13:36 43.77045 21.53253 32544 ft 460 kts 137°
2026-05-04 13:36 43.74577 21.56055 32281 ft 458 kts 137°
2026-05-04 13:37 43.72122 21.58839 32015 ft 456 kts 137°
2026-05-04 13:37 43.69720 21.61584 31757 ft 452 kts 135°
2026-05-04 13:37 43.67538 21.64645 31283 ft 444 kts 126°
2026-05-04 13:37 43.65588 21.67923 30807 ft 440 kts 126°
2026-05-04 13:38 43.63648 21.71180 30291 ft 438 kts 126°
2026-05-04 13:38 43.61715 21.74409 29747 ft 435 kts 127°
2026-05-04 13:38 43.59795 21.77600 29264 ft 430 kts 127°
2026-05-04 13:38 43.57889 21.80758 28773 ft 426 kts 127°
2026-05-04 13:39 43.56031 21.83838 28306 ft 421 kts 127°
2026-05-04 13:39 43.54170 21.86922 27837 ft 417 kts 127°
2026-05-04 13:39 43.52326 21.89974 27385 ft 412 kts 127°
2026-05-04 13:39 43.50499 21.92999 26930 ft 409 kts 127°
2026-05-04 13:40 43.48688 21.95998 26481 ft 405 kts 127°
2026-05-04 13:40 43.46893 21.98966 26053 ft 402 kts 128°
2026-05-04 13:40 43.45113 22.01909 25637 ft 399 kts 128°
2026-05-04 13:40 43.43341 22.04830 25224 ft 396 kts 128°
2026-05-04 13:41 43.41605 22.07688 24820 ft 394 kts 128°
2026-05-04 13:41 43.39850 22.10572 24413 ft 392 kts 128°
2026-05-04 13:41 43.38105 22.13435 24011 ft 390 kts 128°
2026-05-04 13:42 43.34638 22.19123 23131 ft 385 kts 129°
2026-05-04 13:42 43.32925 22.21927 22710 ft 381 kts 129°
2026-05-04 13:42 43.31228 22.24705 22291 ft 377 kts 129°
2026-05-04 13:42 43.29551 22.27447 21877 ft 373 kts 129°
2026-05-04 13:43 43.27911 22.30126 21449 ft 370 kts 129°
2026-05-04 13:43 43.26264 22.32817 21029 ft 366 kts 128°
2026-05-04 13:43 43.24633 22.35476 20596 ft 363 kts 128°
2026-05-04 13:43 43.23013 22.38112 20177 ft 360 kts 128°
2026-05-04 13:44 43.21405 22.40728 19745 ft 357 kts 128°
2026-05-04 13:44 43.19811 22.43316 19323 ft 354 kts 127°
2026-05-04 13:44 43.18226 22.45893 18898 ft 353 kts 127°
2026-05-04 13:44 43.16647 22.48459 18468 ft 351 kts 127°
2026-05-04 13:45 43.15100 22.50975 17995 ft 349 kts 127°
2026-05-04 13:45 43.13536 22.53514 17512 ft 348 kts 127°
2026-05-04 13:45 43.11983 22.56032 17040 ft 345 kts 127°
2026-05-04 13:45 43.10436 22.58531 16566 ft 343 kts 127°
2026-05-04 13:46 43.08894 22.61016 16115 ft 341 kts 127°
2026-05-04 13:46 43.07366 22.63484 15658 ft 339 kts 127°
2026-05-04 13:46 43.05848 22.65932 15216 ft 337 kts 127°
2026-05-04 13:46 43.04338 22.68363 14778 ft 334 kts 126°
2026-05-04 13:47 43.02836 22.70782 14341 ft 333 kts 127°
2026-05-04 13:47 43.01362 22.73150 13920 ft 331 kts 126°
2026-05-04 13:47 42.99784 22.75449 13240 ft 337 kts 136°
2026-05-04 13:47 42.97953 22.77470 12205 ft 339 kts 138°
2026-05-04 13:48 42.96131 22.79445 11524 ft 325 kts 138°
2026-05-04 13:48 42.94410 22.81291 11159 ft 306 kts 138°
2026-05-04 13:48 42.92755 22.83065 10792 ft 301 kts 138°
2026-05-04 13:48 42.91110 22.84838 10414 ft 301 kts 138°
2026-05-04 13:49 42.89474 22.86605 10138 ft 297 kts 139°
2026-05-04 13:49 42.87889 22.88316 9908 ft 292 kts 138°
2026-05-04 13:49 42.86297 22.90033 9773 ft 291 kts 139°
2026-05-04 13:49 42.84701 22.91756 9337 ft 296 kts 138°
2026-05-04 13:50 42.83089 22.93493 9012 ft 294 kts 138°
2026-05-04 13:50 42.81493 22.95209 8566 ft 292 kts 138°
2026-05-04 13:50 42.79907 22.96918 8007 ft 289 kts 139°
2026-05-04 13:50 42.78337 22.98609 7354 ft 288 kts 137°
2026-05-04 13:51 42.76790 23.00269 6923 ft 278 kts 139°
2026-05-04 13:51 42.75319 23.01843 6560 ft 267 kts 138°
2026-05-04 13:51 42.73885 23.03378 6252 ft 257 kts 137°
2026-05-04 13:51 42.72577 23.04959 6094 ft 245 kts 123°
2026-05-04 13:52 42.71541 23.09034 6009 ft 222 kts 90°
2026-05-04 13:52 42.71426 23.11124 5857 ft 220 kts 90°
2026-05-04 13:52 42.71312 23.13182 5603 ft 218 kts 89°
2026-05-04 13:53 42.71197 23.15195 5328 ft 215 kts 89°
2026-05-04 13:53 42.71081 23.17215 5064 ft 212 kts 90°
2026-05-04 13:53 42.70968 23.19166 4780 ft 201 kts 90°
2026-05-04 13:54 42.70759 23.22737 4252 ft 175 kts 89°
2026-05-04 13:54 42.70667 23.24331 4019 ft 164 kts 91°
2026-05-04 13:54 42.70496 23.27285 3582 ft 153 kts 92°
2026-05-04 13:55 42.70414 23.28700 3390 ft 149 kts 91°
2026-05-04 13:55 42.70251 23.31491 2987 ft 148 kts 92°
2026-05-04 13:55 42.70170 23.32859 2799 ft 147 kts 92°
2026-05-04 13:56 42.70089 23.34244 2600 ft 148 kts 92°
2026-05-04 13:56 42.70011 23.35619 2411 ft 146 kts 91°
2026-05-04 13:56 42.69848 23.38351 2075 ft 143 kts 91°
2026-05-04 13:57 42.69770 23.39699 1842 ft 143 kts 93°
2026-05-04 13:57 42.69690 23.41002 1749 ft 126 kts 92°
2026-05-04 13:58 42.69515 23.42682 1747 ft 17 kts 124°
2026-05-04 13:58 42.69402 23.42678 1749 ft 13 kts 269°
2026-05-04 13:58 42.69411 23.42534 1751 ft 20 kts 274°
2026-05-04 13:59 42.69424 23.42302 1751 ft 28 kts 274°
2026-05-04 13:59 42.69441 23.42037 1751 ft 28 kts 275°
2026-05-04 13:59 42.69473 23.41492 1750 ft 30 kts 275°
2026-05-04 14:00 42.69490 23.41210 1750 ft 30 kts 274°
2026-05-04 14:00 42.69519 23.40727 1746 ft 26 kts 275°
2026-05-04 14:00 42.69530 23.40525 1749 ft 15 kts 268°
2026-05-04 14:01 42.69446 23.40458 1748 ft 16 kts 197°
2026-05-04 14:01 42.69338 23.40414 1740 ft 17 kts 197°
2026-05-04 14:01 42.69164 23.40276 1744 ft 14 kts 281°
2026-05-04 14:02 42.69168 23.40173 1746 ft 10 kts 220°
2026-05-04 14:02 42.69117 23.40150 1749 ft 3 kts 195°
2026-05-04 14:02 42.69116 23.40150 1749 ft 0 kts 195°